Location: Gradaro
(45.0833°N, 10.8833°E)
Time: 10:26:09
(UTC+00:00)

ATLAS CENTAUR R/B - Pass Details

Date: 29 November 2020
Orbit: 477 x 668 km, 64.7° (Epoch: 12 January)

Event Time Altitude Azimuth Distance (km) Brightness Sun altitude
Exits shadow 04:32:33 37° 355° (N) 794 1.9 -20.6°
Maximum altitude 04:33:43 54° 51° (NE) 619 1.7 -20.4°
Drops below altitude 10° 04:37:35 10° 130° (SE) 1,764 4.8 -19.8°
Sets 04:39:51 0° 135° (SE) 2,682 5.8 -19.4°
